Voltar ao catálogo

STARLINK-36484

AtivoComunicaçõesVLEO
NORAD 67404·PAYLOAD·🇺🇸 United States

Lançado Jan 12, 2026 de Cape Canaveral Space Force Station

Loading…

Próximas Passagens (próximas 24 horas)

TLE

AtualizadoSource: CelesTrak SupGP

Época: Sep 14, 2026, 23:03 UTC

1 67404C 26005A   26257.96090278  .00024284  00000+0  87969-3 0  2575
2 67404  42.9991 248.7944 0001147 260.4036 199.0084 15.27562167    13

Acompanhe STARLINK-36484 em tempo real com AllMySat

Download on the App Store